When you browse on this site, cookies collect data to enhance your experience and personalize the content and advertising you see.
Visit our Privacy Policy to learn more. By continuing to use the site, you agree to this use of cookies and data.
  • In United Kingdom
  • List of Countries
  • For 7 days
  • Water Temperature
  • Weather Map
  • Weather Widgets
  • user-avatar
    Login

    Hourly Weather Klagenfurt

    Today, 20 August, Tuesday

    Time Temperature Precipitation Wind Pressure Humidity
    00:00 +16°C° 0 mm 0 mps 692 mmHg 84%
    01:00 +16°C° 0 mm 1 mps 693 mmHg 85%
    02:00 +15°C° 0 mm 0 mps 693 mmHg 85%
    03:00 +15°C° 0 mm 0 mps 692 mmHg 86%
    04:00 +15°C° 0 mm 0 mps 692 mmHg 86%
    05:00 +16°C° 0 mm 0 mps 693 mmHg 85%
    06:00 +17°C° 0 mm 0 mps 693 mmHg 85%
    07:00 +18°C° 0 mm 0 mps 694 mmHg 84%
    08:00 +20°C° 0 mm 0 mps 694 mmHg 77%
    09:00 +24°C° 0 mm 1 mps 694 mmHg 69%
    10:00 +26°C° 0 mm 1 mps 694 mmHg 61%
    11:00 +27°C° 0 mm 1 mps 694 mmHg 57%
    12:00 +28°C° 0 mm 1 mps 694 mmHg 54%
    13:00 +29°C° 0 mm 1 mps 694 mmHg 50%
    14:00 +29°C° 0.1 mm 1 mps 694 mmHg 50%
    15:00 +29°C° 0.1 mm 1 mps 694 mmHg 51%
    16:00 +28°C° 0.1 mm 1 mps 693 mmHg 51%
    17:00 +26°C° 0 mm 1 mps 693 mmHg 60%
    18:00 +24°C° 0 mm 1 mps 693 mmHg 69%
    19:00 +22°C° 0 mm 1 mps 692 mmHg 77%
    20:00 +21°C° 0 mm 1 mps 692 mmHg 77%
    21:00 +20°C° 0 mm 1 mps 692 mmHg 78%
    22:00 +20°C° 0 mm 1 mps 692 mmHg 78%
    23:00 +19°C° 0 mm 1 mps 692 mmHg 78%

    Tomorrow, 21 August, Wednesday

    Time Temperature Precipitation Wind Pressure Humidity
    00:00 +19°C° 0 mm 1 mps 692 mmHg 78%
    01:00 +19°C° 0 mm 1 mps 692 mmHg 78%
    02:00 +18°C° 0 mm 1 mps 693 mmHg 79%
    03:00 +18°C° 0 mm 1 mps 693 mmHg 80%
    04:00 +16°C° 0 mm 1 mps 693 mmHg 80%
    05:00 +18°C° 0 mm 1 mps 694 mmHg 81%
    06:00 +19°C° 0 mm 1 mps 694 mmHg 82%
    07:00 +19°C° 0 mm 1 mps 695 mmHg 83%
    08:00 +20°C° 0.2 mm 1 mps 695 mmHg 82%
    09:00 +21°C° 0.2 mm 1 mps 696 mmHg 80%
    10:00 +21°C° 0.2 mm 1 mps 696 mmHg 79%
    11:00 +21°C° 0.4 mm 1 mps 696 mmHg 81%
    12:00 +21°C° 0.4 mm 1 mps 696 mmHg 83%
    13:00 +20°C° 0.4 mm 1 mps 696 mmHg 85%
    14:00 +20°C° 0.2 mm 1 mps 696 mmHg 84%
    15:00 +21°C° 0.2 mm 1 mps 696 mmHg 83%
    16:00 +21°C° 0.2 mm 1 mps 696 mmHg 82%
    17:00 +20°C° 0.1 mm 1 mps 695 mmHg 86%
    18:00 +19°C° 0.1 mm 1 mps 695 mmHg 89%
    19:00 +18°C° 0.1 mm 1 mps 695 mmHg 92%
    20:00 +18°C° 0.1 mm 1 mps 695 mmHg 93%
    21:00 +18°C° 0.1 mm 1 mps 696 mmHg 94%
    22:00 +16°C° 0.1 mm 1 mps 696 mmHg 95%
    23:00 +16°C° 0.1 mm 1 mps 695 mmHg 95%

    Day after tomorrow, 22 August, Thursday

    Time Temperature Precipitation Wind Pressure Humidity
    00:00 +15°C° 0.1 mm 1 mps 695 mmHg 96%
    01:00 +15°C° 0.1 mm 1 mps 695 mmHg 97%
    02:00 +14°C° 0.2 mm 0 mps 695 mmHg 97%
    03:00 +13°C° 0.2 mm 0 mps 695 mmHg 97%
    04:00 +13°C° 0.2 mm 0 mps 694 mmHg 97%
    05:00 +14°C° 0 mm 0 mps 695 mmHg 96%
    06:00 +14°C° 0 mm 0 mps 695 mmHg 95%
    07:00 +14°C° 0 mm 0 mps 695 mmHg 95%
    08:00 +18°C° 0 mm 1 mps 695 mmHg 88%
    09:00 +19°C° 0 mm 1 mps 696 mmHg 81%
    10:00 +21°C° 0 mm 1 mps 696 mmHg 74%
    11:00 +22°C° 0 mm 1 mps 696 mmHg 69%
    12:00 +24°C° 0 mm 1 mps 696 mmHg 64%
    13:00 +25°C° 0 mm 1 mps 696 mmHg 59%
    14:00 +25°C° 0 mm 1 mps 696 mmHg 61%
    15:00 +25°C° 0 mm 1 mps 695 mmHg 62%
    16:00 +24°C° 0 mm 1 mps 695 mmHg 64%
    17:00 +23°C° 0.1 mm 1 mps 695 mmHg 72%
    18:00 +21°C° 0.1 mm 1 mps 695 mmHg 81%
    19:00 +19°C° 0.1 mm 1 mps 695 mmHg 90%
    20:00 +18°C° 0.2 mm 1 mps 695 mmHg 91%
    21:00 +18°C° 0.2 mm 1 mps 695 mmHg 93%
    22:00 +16°C° 0.2 mm 1 mps 695 mmHg 95%
    23:00 +16°C° 0 mm 1 mps 695 mmHg 95%

    23 August, Friday

    Time Temperature Precipitation Wind Pressure Humidity
    00:00 +16°C° 0 mm 1 mps 695 mmHg 95%
    01:00 +15°C° 0 mm 1 mps 695 mmHg 95%
    02:00 +15°C° 0 mm 1 mps 695 mmHg 96%
    03:00 +15°C° 0 mm 1 mps 695 mmHg 96%
    04:00 +15°C° 0 mm 1 mps 694 mmHg 96%
    05:00 +16°C° 0 mm 1 mps 695 mmHg 94%
    06:00 +16°C° 0 mm 1 mps 695 mmHg 92%
    07:00 +18°C° 0 mm 1 mps 695 mmHg 91%
    08:00 +19°C° 0.2 mm 1 mps 695 mmHg 87%
    09:00 +20°C° 0.2 mm 1 mps 696 mmHg 83%
    10:00 +22°C° 0.2 mm 1 mps 696 mmHg 80%
    11:00 +22°C° 0.1 mm 1 mps 696 mmHg 76%
    12:00 +23°C° 0.1 mm 1 mps 696 mmHg 73%
    13:00 +24°C° 0.1 mm 1 mps 696 mmHg 69%
    14:00 +24°C° 0.4 mm 1 mps 695 mmHg 71%
    15:00 +24°C° 0.4 mm 1 mps 695 mmHg 72%
    16:00 +24°C° 0.4 mm 1 mps 695 mmHg 73%
    17:00 +23°C° 0.2 mm 1 mps 695 mmHg 80%
    18:00 +21°C° 0.2 mm 1 mps 694 mmHg 86%
    19:00 +20°C° 0.2 mm 1 mps 694 mmHg 93%
    20:00 +19°C° 0.8 mm 1 mps 694 mmHg 93%
    21:00 +19°C° 0.8 mm 1 mps 694 mmHg 94%
    22:00 +18°C° 0.8 mm 1 mps 694 mmHg 94%
    23:00 +18°C° 0.3 mm 1 mps 694 mmHg 94%

    24 August, Saturday

    Time Temperature Precipitation Wind Pressure Humidity
    00:00 +18°C° 0.3 mm 1 mps 694 mmHg 94%
    01:00 +15°C° 0.3 mm 0 mps 694 mmHg 94%
    02:00 +15°C° 0.3 mm 0 mps 694 mmHg 95%
    03:00 +15°C° 0.3 mm 0 mps 693 mmHg 95%
    04:00 +15°C° 0.3 mm 0 mps 693 mmHg 95%
    05:00 +16°C° 0.1 mm 0 mps 693 mmHg 95%
    06:00 +16°C° 0.1 mm 0 mps 693 mmHg 94%
    07:00 +19°C° 0.1 mm 1 mps 694 mmHg 94%
    08:00 +21°C° 0.1 mm 1 mps 694 mmHg 88%
    09:00 +22°C° 0.1 mm 1 mps 694 mmHg 81%
    10:00 +24°C° 0.1 mm 1 mps 694 mmHg 75%
    11:00 +25°C° 0.5 mm 1 mps 694 mmHg 71%
    12:00 +26°C° 0.5 mm 1 mps 694 mmHg 66%
    13:00 +27°C° 0.5 mm 1 mps 694 mmHg 61%
    14:00 +27°C° 0.6 mm 1 mps 694 mmHg 62%
    15:00 +27°C° 0.6 mm 1 mps 693 mmHg 62%
    16:00 +27°C° 0.6 mm 1 mps 693 mmHg 62%
    17:00 +24°C° 0.9 mm 1 mps 693 mmHg 71%
    18:00 +20°C° 0.9 mm 0 mps 692 mmHg 79%
    19:00 +18°C° 0.9 mm 0 mps 692 mmHg 87%
    20:00 +18°C° 1 mm 0 mps 692 mmHg 88%
    21:00 +17°C° 1 mm 0 mps 692 mmHg 88%
    22:00 +19°C° 1 mm 1 mps 692 mmHg 89%
    23:00 +19°C° 0.3 mm 1 mps 692 mmHg 89%

    25 August, Sunday

    Time Temperature Precipitation Wind Pressure Humidity
    00:00 +18°C° 0.3 mm 1 mps 692 mmHg 90%
    01:00 +18°C° 0.3 mm 1 mps 692 mmHg 91%
    02:00 +16°C° 0 mm 1 mps 692 mmHg 91%
    03:00 +16°C° 0 mm 1 mps 691 mmHg 91%
    04:00 +16°C° 0 mm 1 mps 691 mmHg 92%
    05:00 +16°C° 0 mm 1 mps 692 mmHg 91%
    06:00 +18°C° 0 mm 1 mps 692 mmHg 90%
    07:00 +19°C° 0 mm 1 mps 692 mmHg 89%
    08:00 +21°C° 0.1 mm 1 mps 693 mmHg 81%
    09:00 +23°C° 0.1 mm 1 mps 693 mmHg 73%
    10:00 +25°C° 0.1 mm 1 mps 693 mmHg 65%
    11:00 +26°C° 0.7 mm 1 mps 693 mmHg 64%
    12:00 +26°C° 0.7 mm 1 mps 693 mmHg 62%
    13:00 +27°C° 0.7 mm 1 mps 693 mmHg 61%
    14:00 +27°C° 0.6 mm 1 mps 693 mmHg 62%
    15:00 +26°C° 0.6 mm 1 mps 693 mmHg 63%
    16:00 +26°C° 0.6 mm 1 mps 693 mmHg 64%
    17:00 +24°C° 0.1 mm 1 mps 692 mmHg 70%
    18:00 +22°C° 0.1 mm 1 mps 692 mmHg 76%
    19:00 +18°C° 0.1 mm 0 mps 692 mmHg 82%
    20:00 +20°C° 0.1 mm 1 mps 692 mmHg 82%
    21:00 +19°C° 0.1 mm 1 mps 692 mmHg 83%
    22:00 +19°C° 0.1 mm 1 mps 692 mmHg 83%
    23:00 +18°C° 0 mm 1 mps 692 mmHg 84%
    Show more